Regional Weather Roundup
Issued by NWS Wakefield, VA

Home | Current Version | Previous Version | Text Only | Print | Product List | Glossary Off
Versions: 1 2 3 4 5 6 7 8 9 10 11 12 13 14 15 16 17 18 19 20 21 22 23 24 25 26 27 28 29 30 31 32 33 34 35 36 37 38 39 40 41 42 43 44 45 46 47 48 49 50

000
ASUS41 KAKQ 102315
RWRAKQ

REGIONAL WEATHER ROUNDUP
NATIONAL WEATHER SERVICE WAKEFIELD VA
600 PM EST SAT DEC 10 2016

Note: "fair" indicates few or no clouds below 12,000 feet with no
significant weather and/or obstructions to visibility. * = Denotes
station may not report precipitation (e.g., rain,snow,etc.),
thunder or fog.

VAZ042-051-052>054-056-110000-
NORTHERN VIRGINIA

CITY           SKY/WX    TMP DP  RH WIND       PRES   REMARKS
WASH NATIONAL  CLEAR     33  12  41 NW9       30.52R
DULLES         CLEAR     30  11  45 NW12      30.50R WCI  20
FORT BELVOIR   NOT AVBL
QUANTICO       CLEAR     33  14  45 N8        30.52R
FREDERICKSBRG* CLEAR     32  19  58 NW3       30.50R
STAFFORD*      CLEAR     31  13  48 N7        30.54R
WARRENTON      CLEAR     31   8  38 N5        30.49R
CULPEPER*      CLEAR     30  14  50 CALM      30.50S
MANASSAS*      CLEAR    N/A N/A N/A N10       30.52R
LEESBURG*      CLEAR     32  18  55 N6        30.51R
WINCHESTER     CLEAR     27  10  50 NW5       30.49R
FRONT ROYAL*   FAIR      28  12  50 NW5       30.47S
LURAY*         FAIR      30  16  55 N7        30.46S
$$

VAZ048-049-060>072-079>083-110000-
CENTRAL AND SOUTH CENTRAL VIRGINIA

CITY           SKY/WX    TMP DP  RH WIND       PRES   REMARKS
RICHMOND       PTCLDY    34  12  40 NW3       30.50R
CHESTERFIELD*  FAIR      28   3  34 CALM      30.51R
PETERSBURG*    CLEAR     26  18  72 CALM      30.51R
HANOVER        CLEAR     29  17  61 CALM      30.51R
TAPPAHANNOCK*  CLEAR     29  11  47 CALM      30.50R
QUINTON*       FAIR      31  16  52 CALM      30.49R
CHARLOTTSVILLE CLEAR     34  11  38 CALM      30.45S
GORDONSVILLE*  FAIR      28  16  58 CALM      30.47R
ORANGE*          N/A     28  19  69 CALM      30.49S
LOUISA*        CLEAR     30  19  64 CALM      30.46S
BUMPASS*       FAIR      28  14  54 CALM      30.49R
FARMVILLE*     CLEAR     30  16  55 CALM      30.47R
CREWE*         FAIR      31  14  50 CALM      30.48R
FORT PICKETT*  FAIR      32   6  33 CALM      30.48R
CHASE CITY*    FAIR      29  15  55 CALM      30.47S
CLARKSVILLE*   FAIR      30  18  59 CALM      30.47S
SOUTH HILL*    CLEAR     28  18  66 CALM      30.53F
LAWRENCEVILLE* FAIR      32  13  45 CALM      30.48F
EMPORIA*       CLEAR     27  19  74 CALM      30.51S
$$

VAZ088>098-110000-
SOUTHEAST VIRGINIA

CITY           SKY/WX    TMP DP  RH WIND       PRES   REMARKS
NORFOLK        CLEAR     37  17  44 CALM      30.49R
VIRGINIA BEACH PTCLDY    31  17  56 NW5       30.49R
NORFOLK NAVAL  PTCLDY    37  15  40 NW9       30.51R
WEST POINT*    CLEAR     32  14  47 CALM      30.52R
SALUDA*        FAIR      32  18  56 W3        30.50R
NEWPORT NEWS   CLEAR     31  17  56 CALM      30.50R
LANGLEY AFB    CLEAR     32  18  56 CALM      30.49R
FORT EUSTIS    CLEAR     35  16  46 NW7       30.47R
WILLIAMSBURG*  CLEAR     34  19  55 CALM      30.51R
HR EXEC AP*    FAIR      27  18  69 CALM      30.49R
FRANKLIN*      CLEAR     29  19  63 CALM      30.51R
US460-WAKEFLD  CLEAR     28  18  66 CALM      30.50R
$$

VAZ020-022-025-037-045-110000-
WEST CENTRAL AND SOUTHWEST VIRGINIA

CITY           SKY/WX    TMP DP  RH WIND       PRES   REMARKS
STAUNTON*      CLEAR     28  11  49 N5        30.45R
WAYNESBORO*    FAIR      28   8  43 CALM      30.41S
HOT SPRINGS VA CLEAR     21   3  45 W13       30.27S WCI   9
LYNCHBURG      CLEAR     27  14  58 CALM      30.46R
DANVILLE       CLEAR     29  17  61 CALM      30.47R
SOUTH BOSTON*  FAIR      31  12  46 CALM      30.48R
MARTINSVILLE   CLEAR     29  13  52 CALM      30.47R
ROANOKE        PTCLDY    34  10  37 CALM      30.46R
BLACKSBURG     CLEAR     29   9  42 CALM      30.43R
DUBLIN*        CLEAR     31   8  37 W3        30.42R
MARION*        CLEAR     28  12  50 W7        30.42S
HILLSVILLE*    CLEAR     28  11  48 CALM      30.37S
RICHLANDS*     FAIR      28  13  53 CALM      30.38F
WISE*          PTCLDY    30   9  40 CALM      30.38F
ABINGDON*      CLEAR     31  13  48 CALM      30.42S
$$

MDZ021>025-VAZ099-100-110000-
SOUTHERN MARYLAND AND THE DELMARVA PENINSULA

CITY           SKY/WX    TMP DP  RH WIND       PRES   REMARKS
PATUXENT RIVER PTCLDY    34  15  46 NW14      30.50R WCI  25
BAY BRIDGE APT CLEAR     34  14  44 MISG      30.50R
LEONARDTOWN    CLEAR     32  14  47 NW3       30.52R
DOVER          PTCLDY    32  17  54 W6        30.45R
GEORGETOWN     CLEAR     33  15  47 CALM      30.48R
EASTON         CLEAR     34  12  40 NW8       30.53R
CAMBRIDGE      CLEAR     32  14  47 W6        30.49R
SALISBURY      CLEAR     32  16  51 NW6       30.48R
OCEAN CITY     CLEAR     31  16  54 NW5       30.48R
WALLOPS ISLAND CLEAR     32  20  61 CALM      30.49R
ACCOMACK*      CLEAR     30  23  74 CALM      30.49R
$$

NCZ012>017-030>032-110000-
NORTH CENTRAL AND EASTERN NORTH CAROLINA

CITY           SKY/WX    TMP DP  RH WIND       PRES   REMARKS
ROANOKE RAPIDS FAIR      34  18  51 CALM      30.49S
RALEIGH        PTCLDY    35  13  40 CALM      30.47S
ELIZABETH CITY CLEAR     34  19  54 NW3       30.50R
AHOSKIE*       CLEAR     31  22  67 CALM      30.50R
EDENTON*       CLEAR     37  22  56 CALM      30.50R
CURRITUCK*     CLEAR     36  19  50 W3        30.50R
KILL DEVIL HLS CLEAR     37  25  64 W3        30.47R
MANTEO         CLEAR     37  20  50 NW5       30.49R
CAPE HATTERAS  CLEAR     37  22  54 NW3       30.48R
TARBORO*       NOT AVBL
GOLDSBORO      CLEAR     35  17  48 CALM      30.48R
WASHINGTON     CLEAR     33  19  57 CALM      30.50R
GREENVILLE     CLEAR     32  21  64 CALM      30.50R
NEW BERN       CLEAR     34  20  56 CALM      30.51R
WILMINGTON     CLEAR     34  25  69 NE3       30.50R
$$

VAZ048-110000-
ELSEWHERE

CITY           SKY/WX    TMP DP  RH WIND       PRES   REMARKS
HARRISBURG PA  PTCLDY    31  17  56 W8        30.46R
BALTIMORE      CLEAR     29  13  51 W8        30.49R
ANNAPOLIS      CLEAR     34  12  40 W6        30.50R
ANDREWS AFB    CLEAR     31  11  43 NW8       30.48R
PHILADELPHIA   PTCLDY    35  12  38 NW10      30.46R
HENDERSON NC   CLEAR     30  11  44 CALM      30.47S
GREENSBORO     PTCLDY    37  11  34 CALM      30.43S
ROCKY MOUNT    CLEAR     31  20  63 CALM      30.49S
$$

VAZ100-110000-
MARINE

STATION/POSITION TIME  TEMP    WIND        PRES    WAVE   SWELL
                       AIR SEA DIR/SP/G            HT/PER HT/PER
                 (UTC) (F)     (DEG/KT/KT) (MB)    (FT/S) (FT/S)
BRANDYWINE LGT   2248   35     300/ 19/ 25   N/A
CAPE MAY NJ      2248   36 42  310/ 10/ 18 1030.9R
LEWES DE         2248   35 44  290/ 10/ 13 1031.8R
OCEAN-CITY-INLET 2248          320/  6/  7   N/A
WACHAPREAGUE VA  2248   32 43     CALM     1032.4R
THOMAS POINT MD  2300   34 45  290/ 14/ 16   N/A
GOOSES REEF MD   2300   35 47  310/ 16/ 19 1033.9    2/ 3
COVE POINT MD    2248   35     350/ 13/ 18 1033.3R
SOLOMONS ISLAND  2248          350/  8/ 10   N/A
BISHOPS HEAD MD  2248   33 37  340/  7/  8 1032.7R
PINEY POINT MD   2236          340/ 13/ 16   N/A
POTOMAC MD       2300   37 47  350/ 12/ 14 1032.0    1/ 2
CAMBRIDGE MD     2248   35 42  290/ 10/ 13 1031.9R
LEWISETTA VA     2248   36 43  310/  4/  5 1032.5R
RAPPAHANNOCK LGT 2248          290/ 11/ 13 1032.9R
STINGRAY PT      2250   38     290/ 10/ 12 1033.0R
YORK RVR RNG VA  2248   38     300/ 10/ 12 1032.1R
YORKTOWN VA      2248   37 48  280/  6/  7 1032.3R
JAMESTOWN VA     2300   37 48  350/  6/  8   N/A     0
DOMINION TERM VA 2248   39     300/  9/ 11 1032.6R
KIPTOPEKE VA     2236      48  320/ 16/ 18   N/A
CHES BAY BRIDGE  2248   39 49  310/ 11/ 15 1032.3R
CAPE HENRY VA    2248   36     250/  5/  7   N/A
WILLOUBY STN VA  2248   39     290/ 11/ 13 1033.3R
S CRANEY ISL VA  2248   37     270/  3/  6 1032.3R
CAPE HENRY BUOY  2242      53                N/A     2/ 3
1ST LANDING BUOY 2300   39 50              1032.5    1/ 3
CAPE CHARLES BUO 2226      51                N/A     1/ 4
OFFSHORE WE BUOY 2251      54                N/A     2/ 3
64NM E OF VA BCH 2250   40 58  310/ 16/ 19 1031.3R   3/ 7   2/ 7
DUCK PIER NC     2248   39 50  300/  9/ 11 1031.8R
44100 DUCK FRF   2235      55                N/A     3/ 6
OREGON INLET NC  2236   35 49  340/  3/  5 1032.2R
HATTERAS NC      2248   41 51  300/  6/  9 1031.8R
DIAMOND SHLS NC  2250   43 77  320/ 10/ 16 1032.1R   4/ 9   3/ 9
CAPE LOOKOUT NC  2300   41     360/  7/  8 1031.8R
$$



USA.gov is the U.S. government's official web portal to all federal, state and local government web resources and services.